YZR7974 ZGGG-ZGHA

Flight info

Callsign YZR7974
Flight time 0h 51m
Altitude 24600
Route MIKIP9/02L MIKIP A461 MEXON W616 UKLUK
Aircraft B77L/H-SDE1E2E3FGHIJ2J3J4J5M1RWXY/LB1D1

Departure

Time 2026-04-26 03:55
Airport Guangzhou Baiyun International Airport (ZGGG)

Arrival

Time 2026-04-26 04:46
Airport Changsha Huanghua International Airport (ZGHA)
Time Latitude Longitude Altitude Speed Heading
2026-04-26 03:47 23.39006 113.31525 55 ft 4 kts 193°
2026-04-26 03:47 23.38966 113.31514 56 ft 8 kts 193°
2026-04-26 03:47 23.38896 113.31495 57 ft 12 kts 194°
2026-04-26 03:47 23.38798 113.31468 58 ft 17 kts 194°
2026-04-26 03:48 23.38674 113.31434 60 ft 20 kts 194°
2026-04-26 03:48 23.38524 113.31394 56 ft 24 kts 194°
2026-04-26 03:48 23.38351 113.31347 57 ft 27 kts 194°
2026-04-26 03:48 23.38210 113.31310 55 ft 20 kts 194°
2026-04-26 03:49 23.38079 113.31274 55 ft 18 kts 194°
2026-04-26 03:49 23.37942 113.31237 55 ft 20 kts 194°
2026-04-26 03:49 23.37816 113.31203 57 ft 18 kts 194°
2026-04-26 03:49 23.37700 113.31171 57 ft 18 kts 194°
2026-04-26 03:50 23.37596 113.31143 54 ft 15 kts 194°
2026-04-26 03:50 23.37502 113.31119 56 ft 2 kts 193°
2026-04-26 03:50 23.37469 113.31102 56 ft 6 kts 229°
2026-04-26 03:50 23.37463 113.31053 55 ft 0 kts 284°
2026-04-26 03:51 23.37464 113.31050 55 ft 2 kts 284°
2026-04-26 03:51 23.37471 113.31019 60 ft 7 kts 284°
2026-04-26 03:51 23.37486 113.30956 56 ft 10 kts 284°
2026-04-26 03:52 23.37506 113.30867 61 ft 14 kts 284°
2026-04-26 03:52 23.37523 113.30795 54 ft 6 kts 284°
2026-04-26 03:52 23.37537 113.30733 57 ft 11 kts 284°
2026-04-26 03:52 23.37558 113.30640 57 ft 15 kts 284°
2026-04-26 03:53 23.37578 113.30562 61 ft 8 kts 298°
2026-04-26 03:53 23.37628 113.30551 55 ft 0 kts 13°
2026-04-26 03:53 23.37746 113.30581 59 ft 35 kts 14°
2026-04-26 03:54 23.38094 113.30676 56 ft 67 kts 14°
2026-04-26 03:54 23.38696 113.30838 58 ft 118 kts 14°
2026-04-26 03:54 23.39685 113.31106 60 ft 173 kts 14°
2026-04-26 03:54 23.40903 113.31445 505 ft 181 kts 15°
2026-04-26 03:55 23.42108 113.31806 1204 ft 179 kts 16°
2026-04-26 03:55 23.43325 113.32167 1798 ft 184 kts 15°
2026-04-26 03:55 23.44565 113.32532 2435 ft 186 kts 15°
2026-04-26 03:55 23.45827 113.32900 3008 ft 189 kts 15°
2026-04-26 03:56 23.47105 113.33277 3581 ft 192 kts 15°
2026-04-26 03:56 23.48439 113.33674 3983 ft 208 kts 16°
2026-04-26 03:56 23.49963 113.34128 4013 ft 246 kts 16°
2026-04-26 03:56 23.51746 113.34662 3979 ft 286 kts 15°
2026-04-26 03:57 23.53651 113.35226 3961 ft 285 kts 15°
2026-04-26 03:57 23.55527 113.35792 4010 ft 273 kts 15°
2026-04-26 03:57 23.57332 113.36207 4337 ft 261 kts 10°
2026-04-26 03:57 23.59157 113.36534 4974 ft 271 kts 10°
2026-04-26 03:58 23.61050 113.36878 5648 ft 279 kts 10°
2026-04-26 03:58 23.62981 113.37236 6562 ft 284 kts
2026-04-26 03:58 23.64938 113.37602 7468 ft 286 kts
2026-04-26 03:58 23.66910 113.37975 8349 ft 289 kts
2026-04-26 03:59 23.68906 113.38357 9248 ft 292 kts
2026-04-26 03:59 23.70919 113.38741 10147 ft 295 kts
2026-04-26 03:59 23.72982 113.39136 10761 ft 310 kts
2026-04-26 03:59 23.75205 113.39559 10963 ft 338 kts
2026-04-26 04:00 23.77612 113.40020 11172 ft 365 kts
2026-04-26 04:00 23.80181 113.40512 11606 ft 382 kts
2026-04-26 04:00 23.82828 113.41020 12334 ft 390 kts
2026-04-26 04:00 23.85521 113.41536 13170 ft 395 kts
2026-04-26 04:01 23.88242 113.42058 14004 ft 399 kts
2026-04-26 04:01 23.90992 113.42585 14734 ft 404 kts
2026-04-26 04:01 23.93778 113.43119 15479 ft 408 kts
2026-04-26 04:01 23.96592 113.43660 16186 ft 413 kts
2026-04-26 04:02 23.99446 113.44207 16833 ft 420 kts
2026-04-26 04:02 24.02340 113.44763 17483 ft 425 kts
2026-04-26 04:02 24.05269 113.45324 18171 ft 429 kts
2026-04-26 04:02 24.08241 113.45750 18741 ft 432 kts 359°
2026-04-26 04:03 24.11240 113.45490 19326 ft 433 kts 350°
2026-04-26 04:03 24.14208 113.44987 19752 ft 432 kts 349°
2026-04-26 04:03 24.17193 113.44486 19725 ft 435 kts 350°
2026-04-26 04:03 24.20193 113.44045 19730 ft 435 kts 351°
2026-04-26 04:04 24.23156 113.43669 19730 ft 434 kts 351°
2026-04-26 04:04 24.26154 113.43242 19847 ft 436 kts 350°
2026-04-26 04:04 24.29165 113.42792 20514 ft 437 kts 350°
2026-04-26 04:04 24.32188 113.42365 21199 ft 439 kts 351°
2026-04-26 04:05 24.35227 113.41964 21849 ft 441 kts 352°
2026-04-26 04:05 24.38314 113.41890 22441 ft 447 kts 359°
2026-04-26 04:05 24.41428 113.42060 23054 ft 450 kts
2026-04-26 04:05 24.44558 113.42234 23639 ft 452 kts 359°
2026-04-26 04:06 24.47709 113.42363 24147 ft 453 kts 359°
2026-04-26 04:06 24.50861 113.42466 24619 ft 453 kts 359°
2026-04-26 04:06 24.54014 113.42557 24622 ft 453 kts 358°
2026-04-26 04:06 24.57151 113.42645 24627 ft 451 kts 358°
2026-04-26 04:07 24.60285 113.42731 24626 ft 450 kts 358°
2026-04-26 04:07 24.63418 113.42821 24642 ft 451 kts 358°
2026-04-26 04:07 24.66564 113.42911 24648 ft 453 kts 358°
2026-04-26 04:07 24.69601 113.42994 24642 ft 454 kts 358°
2026-04-26 04:08 24.72877 113.43085 24631 ft 454 kts 358°
2026-04-26 04:08 24.76041 113.43175 24626 ft 454 kts 358°
2026-04-26 04:08 24.79191 113.43266 24619 ft 453 kts 358°
2026-04-26 04:08 24.82337 113.43357 24633 ft 452 kts 358°
2026-04-26 04:09 24.85475 113.43448 24634 ft 451 kts 358°
2026-04-26 04:09 24.88615 113.43539 24628 ft 450 kts 358°
2026-04-26 04:09 24.91743 113.43630 24628 ft 450 kts 358°
2026-04-26 04:09 24.94867 113.43720 24639 ft 449 kts 358°
2026-04-26 04:10 24.97990 113.43811 24633 ft 449 kts 358°
2026-04-26 04:10 25.01107 113.43901 24634 ft 448 kts 358°
2026-04-26 04:10 25.04189 113.43990 24629 ft 448 kts 358°
2026-04-26 04:10 25.07306 113.44080 24634 ft 448 kts 358°
2026-04-26 04:11 25.10425 113.44171 24639 ft 448 kts 358°
2026-04-26 04:11 25.13543 113.44261 24633 ft 449 kts 358°
2026-04-26 04:11 25.16664 113.44352 24631 ft 449 kts 358°
2026-04-26 04:11 25.19786 113.44442 24636 ft 449 kts 358°
2026-04-26 04:12 25.22913 113.44532 24644 ft 449 kts 358°
2026-04-26 04:12 25.26039 113.44623 24646 ft 449 kts 358°
2026-04-26 04:12 25.29166 113.44713 24640 ft 450 kts 358°
2026-04-26 04:12 25.32299 113.44804 24631 ft 450 kts 358°
2026-04-26 04:13 25.35429 113.44897 24626 ft 450 kts 358°
2026-04-26 04:13 25.38558 113.44989 24634 ft 449 kts 358°
2026-04-26 04:13 25.41680 113.45081 24632 ft 449 kts 358°
2026-04-26 04:13 25.44804 113.45171 24620 ft 449 kts 358°
2026-04-26 04:14 25.47921 113.45262 24627 ft 448 kts 358°
2026-04-26 04:14 25.51036 113.45354 24633 ft 447 kts 358°
2026-04-26 04:14 25.54145 113.45445 24636 ft 447 kts 358°
2026-04-26 04:14 25.57248 113.45534 24626 ft 446 kts 358°
2026-04-26 04:15 25.60352 113.45625 24627 ft 446 kts 358°
2026-04-26 04:15 25.63456 113.45716 24625 ft 446 kts 358°
2026-04-26 04:15 25.66555 113.45806 24637 ft 446 kts 358°
2026-04-26 04:15 25.69662 113.45897 24625 ft 446 kts 358°
2026-04-26 04:16 25.72757 113.45988 24631 ft 445 kts 358°
2026-04-26 04:16 25.75857 113.46079 24623 ft 446 kts 358°
2026-04-26 04:16 25.78956 113.46169 24631 ft 446 kts 358°
2026-04-26 04:16 25.82056 113.46260 24622 ft 446 kts 358°
2026-04-26 04:17 25.85160 113.46352 24614 ft 445 kts 358°
2026-04-26 04:17 25.88255 113.46443 24604 ft 445 kts 358°
2026-04-26 04:17 25.91353 113.46537 24602 ft 445 kts 358°
2026-04-26 04:17 25.94443 113.46633 24623 ft 444 kts 358°
2026-04-26 04:18 25.97491 113.46727 24602 ft 444 kts 358°
2026-04-26 04:18 26.00581 113.46823 24615 ft 444 kts 358°
2026-04-26 04:18 26.03667 113.46919 24612 ft 444 kts 358°
2026-04-26 04:18 26.06762 113.47015 24596 ft 444 kts 358°
2026-04-26 04:19 26.09849 113.47115 24607 ft 444 kts 358°
2026-04-26 04:19 26.12936 113.47208 24610 ft 444 kts 358°
2026-04-26 04:19 26.16023 113.47302 24607 ft 444 kts 358°
2026-04-26 04:19 26.19114 113.47396 24607 ft 444 kts 358°
2026-04-26 04:20 26.22210 113.47490 24604 ft 445 kts 358°
2026-04-26 04:20 26.25301 113.47585 24610 ft 445 kts 358°
2026-04-26 04:20 26.28400 113.47681 24601 ft 445 kts 358°
2026-04-26 04:20 26.31497 113.47777 24600 ft 445 kts 358°
2026-04-26 04:21 26.34593 113.47874 24599 ft 445 kts 358°
2026-04-26 04:21 26.37686 113.47971 24590 ft 445 kts 358°
2026-04-26 04:21 26.40782 113.48067 24604 ft 444 kts 358°
2026-04-26 04:21 26.43872 113.48163 24599 ft 444 kts 358°
2026-04-26 04:22 26.46960 113.48260 24600 ft 444 kts 358°
2026-04-26 04:22 26.50048 113.48356 24598 ft 443 kts 358°
2026-04-26 04:22 26.53135 113.48451 24593 ft 443 kts 358°
2026-04-26 04:22 26.56214 113.48547 24589 ft 443 kts 358°
2026-04-26 04:23 26.59256 113.48641 24602 ft 443 kts 358°
2026-04-26 04:23 26.62374 113.48738 24593 ft 443 kts 358°
2026-04-26 04:23 26.65412 113.48833 24604 ft 442 kts 358°
2026-04-26 04:23 26.68489 113.48929 24600 ft 442 kts 358°
2026-04-26 04:24 26.71605 113.49026 24590 ft 442 kts 358°
2026-04-26 04:24 26.74680 113.49122 24588 ft 442 kts 358°
2026-04-26 04:24 26.77710 113.49216 24561 ft 441 kts 358°
2026-04-26 04:24 26.80765 113.49311 24612 ft 438 kts 358°
2026-04-26 04:25 26.83820 113.49406 24602 ft 440 kts 358°
2026-04-26 04:25 26.86882 113.49502 24604 ft 441 kts 358°
2026-04-26 04:25 26.89955 113.49599 24606 ft 442 kts 358°
2026-04-26 04:25 26.93032 113.49695 24618 ft 443 kts 358°
2026-04-26 04:26 26.96119 113.49792 24605 ft 444 kts 358°
2026-04-26 04:26 26.99210 113.49889 24600 ft 444 kts 358°
2026-04-26 04:26 27.02301 113.49985 24596 ft 444 kts 358°
2026-04-26 04:26 27.05387 113.50083 24591 ft 444 kts 358°
2026-04-26 04:27 27.08471 113.50181 24594 ft 443 kts 358°
2026-04-26 04:27 27.11547 113.50277 24595 ft 442 kts 358°
2026-04-26 04:27 27.14627 113.50374 24594 ft 442 kts 358°
2026-04-26 04:27 27.17696 113.50470 24594 ft 441 kts 358°
2026-04-26 04:28 27.20760 113.50558 24605 ft 440 kts 356°
2026-04-26 04:28 27.23807 113.50375 24592 ft 436 kts 350°
2026-04-26 04:28 27.26800 113.49851 24598 ft 434 kts 346°
2026-04-26 04:28 27.29727 113.49040 24586 ft 432 kts 339°
2026-04-26 04:29 27.32497 113.47891 24592 ft 430 kts 335°
2026-04-26 04:29 27.35247 113.46565 24589 ft 430 kts 335°
2026-04-26 04:29 27.38064 113.45401 24585 ft 433 kts 340°
2026-04-26 04:29 27.40892 113.44533 24592 ft 434 kts 342°
2026-04-26 04:30 27.43877 113.43619 24598 ft 433 kts 340°
2026-04-26 04:30 27.46761 113.42679 24562 ft 430 kts 343°
2026-04-26 04:30 27.49682 113.42025 24433 ft 425 kts 347°
2026-04-26 04:30 27.52598 113.41606 24310 ft 419 kts 351°
2026-04-26 04:31 27.55500 113.41467 24117 ft 416 kts 355°
2026-04-26 04:31 27.58384 113.41457 23813 ft 414 kts 356°
2026-04-26 04:31 27.60334 113.41451 23576 ft 414 kts 356°
2026-04-26 04:31 27.63176 113.41428 23188 ft 414 kts 355°
2026-04-26 04:32 27.66989 113.41385 22582 ft 401 kts 355°
2026-04-26 04:32 27.68830 113.41367 21959 ft 397 kts 355°
2026-04-26 04:32 27.71633 113.41336 21147 ft 407 kts 355°
2026-04-26 04:32 27.74477 113.41302 20733 ft 409 kts 355°
2026-04-26 04:33 27.77314 113.41268 20550 ft 405 kts 355°
2026-04-26 04:33 27.80115 113.41238 20356 ft 401 kts 355°
2026-04-26 04:33 27.82903 113.41209 20075 ft 400 kts 355°
2026-04-26 04:33 27.85689 113.41180 19763 ft 400 kts 355°
2026-04-26 04:34 27.88480 113.41150 19465 ft 400 kts 355°
2026-04-26 04:34 27.91266 113.41120 19190 ft 400 kts 355°
2026-04-26 04:34 27.94039 113.41090 18949 ft 398 kts 355°
2026-04-26 04:34 27.96807 113.41061 18698 ft 397 kts 355°
2026-04-26 04:35 27.99568 113.41033 18446 ft 396 kts 355°
2026-04-26 04:35 28.02328 113.41005 18176 ft 396 kts 355°
2026-04-26 04:35 28.05079 113.40978 17930 ft 394 kts 355°
2026-04-26 04:35 28.07816 113.40953 17703 ft 392 kts 356°
2026-04-26 04:36 28.10505 113.40845 17502 ft 375 kts 348°
2026-04-26 04:36 28.12959 113.40240 17330 ft 348 kts 340°
2026-04-26 04:36 28.15193 113.39451 17176 ft 327 kts 338°
2026-04-26 04:36 28.17307 113.38677 16848 ft 313 kts 338°
2026-04-26 04:37 28.19366 113.37951 16221 ft 307 kts 339°
2026-04-26 04:37 28.21395 113.37266 15607 ft 300 kts 340°
2026-04-26 04:37 28.23376 113.36621 15003 ft 292 kts 340°
2026-04-26 04:37 28.25304 113.36006 14412 ft 284 kts 341°
2026-04-26 04:38 28.27186 113.35407 13811 ft 278 kts 341°
2026-04-26 04:38 28.29013 113.34826 13060 ft 276 kts 341°
2026-04-26 04:38 28.30889 113.34389 12300 ft 275 kts 353°
2026-04-26 04:38 28.32803 113.34342 11545 ft 276 kts 357°
2026-04-26 04:39 28.34727 113.34355 10714 ft 278 kts 357°
2026-04-26 04:39 28.36663 113.34349 9904 ft 278 kts 356°
2026-04-26 04:39 28.38566 113.34106 9000 ft 273 kts 335°
2026-04-26 04:39 28.40023 113.32825 8130 ft 266 kts 299°
2026-04-26 04:40 28.40494 113.30857 7289 ft 260 kts 263°
2026-04-26 04:40 28.39828 113.29007 6483 ft 256 kts 228°
2026-04-26 04:40 28.38716 113.27443 5644 ft 256 kts 244°
2026-04-26 04:40 28.38422 113.25443 4805 ft 261 kts 270°
2026-04-26 04:41 28.38475 113.23387 3951 ft 261 kts 266°
2026-04-26 04:41 28.38403 113.21341 3121 ft 258 kts 255°
2026-04-26 04:41 28.37622 113.19630 2691 ft 234 kts 220°
2026-04-26 04:41 28.36294 113.18815 2493 ft 209 kts 187°
2026-04-26 04:42 28.34922 113.19019 2312 ft 203 kts 150°
2026-04-26 04:42 28.33854 113.20092 2336 ft 209 kts 146°
2026-04-26 04:42 28.32568 113.20700 2341 ft 194 kts 169°
2026-04-26 04:42 28.31302 113.21183 2270 ft 189 kts 159°
2026-04-26 04:43 28.30016 113.21577 1981 ft 190 kts 172°
2026-04-26 04:43 28.28726 113.21759 1684 ft 179 kts 175°
2026-04-26 04:43 28.27538 113.21837 1490 ft 166 kts 177°
2026-04-26 04:43 28.26433 113.21901 1286 ft 150 kts 176°
2026-04-26 04:44 28.25417 113.21965 1080 ft 147 kts 176°
2026-04-26 04:44 28.24386 113.22027 920 ft 148 kts 177°
2026-04-26 04:44 28.23353 113.22092 732 ft 150 kts 178°
2026-04-26 04:44 28.22311 113.22158 539 ft 147 kts 177°
2026-04-26 04:45 28.21269 113.22222 365 ft 153 kts 178°
2026-04-26 04:45 28.20205 113.22286 238 ft 150 kts 178°
2026-04-26 04:45 28.19260 113.22343 219 ft 117 kts 177°
2026-04-26 04:45 28.18605 113.22382 215 ft 72 kts 176°
2026-04-26 04:46 28.18322 113.22400 212 ft 26 kts 177°
2026-04-26 04:46 28.18209 113.22320 212 ft 17 kts 263°
2026-04-26 04:46 28.18259 113.22215 219 ft 17 kts 342°
2026-04-26 04:46 28.18372 113.22174 224 ft 17 kts 336°
2026-04-26 04:47 28.18476 113.22109 218 ft 17 kts 327°
2026-04-26 04:47 28.18577 113.22039 220 ft 17 kts 330°
2026-04-26 04:47 28.18690 113.21997 217 ft 17 kts 349°
2026-04-26 04:47 28.18808 113.21984 221 ft 17 kts 356°
2026-04-26 04:48 28.19046 113.21965 217 ft 17 kts 356°
2026-04-26 04:48 28.19164 113.21957 220 ft 17 kts 356°
2026-04-26 04:48 28.19276 113.21913 214 ft 17 kts 336°
2026-04-26 04:49 28.19382 113.21850 214 ft 17 kts 331°
2026-04-26 04:49 28.19484 113.21782 218 ft 17 kts 332°
2026-04-26 04:49 28.19589 113.21748 212 ft 13 kts 354°
2026-04-26 04:49 28.19678 113.21740 213 ft 13 kts 357°
2026-04-26 04:50 28.19768 113.21734 212 ft 13 kts 357°
2026-04-26 04:50 28.19858 113.21726 217 ft 13 kts 356°
2026-04-26 04:50 28.19948 113.21722 211 ft 13 kts 358°
2026-04-26 04:50 28.20042 113.21716 210 ft 14 kts 356°
2026-04-26 04:51 28.20137 113.21712 208 ft 14 kts 358°
2026-04-26 04:51 28.20201 113.21700 212 ft 9 kts 324°
2026-04-26 04:51 28.20213 113.21635 207 ft 6 kts 266°
2026-04-26 04:51 28.20212 113.21627 209 ft 0 kts 266°